Weather History for LIRA - July, 2014

Change the Weather History Date:

Wednesday, July 16, 2014

  Actual Average Record
Temperature  
Mean Temperature 76 °F -  
Max Temperature 87 °F 87 °F 100 °F (2010)
Min Temperature 65 °F 64 °F 59 °F (2000)
Cooling Degree Days 11    
Growing Degree Days 26 (Base 50)    
Moisture  
Dew Point 62 °F    
Average Humidity 64    
Maximum Humidity 94    
Minimum Humidity 24    
Precipitation  
Precipitation 0.00 in 0.04 in - ()
Sea Level Pressure  
Sea Level Pressure 29.99 in    
Wind  
Wind Speed 3 mph ()    
Max Wind Speed 12 mph    
Max Gust Speed -    
Visibility 7.2 miles    
Events Thunderstorm    
Averages and records for this station are not official NWS values.
T = Trace of Precipitation, MM = Missing Value Source: Averaged Metar Reports

Daily Weather History Graph

Daily Weather History Graph

Search for Another Location

Airport or City:

Trip Planner

Search our weather history database for the weather conditions in past years. The results will help you decide how hot, cold, wet, or windy it might be!

Date:

Astronomy

Jul. 16, 2014 Rise Set
Actual Time 5:48 AM CEST 8:42 PM CEST
Civil Twilight 5:15 AM CEST 9:15 PM CEST
Nautical Twilight 4:33 AM CEST 9:57 PM CEST
Astronomical Twilight 3:44 AM CEST 10:45 PM CEST
Moon 11:10 PM CEST (7/16) 10:37 AM CEST (7/16)
Length of Visible Light 15h 59m
Length of Day
14h 53m
Waning Gibbous, 78% of the Moon is Illuminated
Jul 16
Waning Gibbous
Jul 19
Last Quarter
Jul 27
New
Aug 4
First Quarter
Aug 10
Full

Hourly Weather History & Observations

Time (CEST) Temp. Heat Index Dew Point Humidity Pressure Visibility Wind Dir Wind Speed Gust Speed Precip Events Conditions
12:15 AM 71.6 °F - 64.4 °F 78% 29.98 in 6.2 mi Calm Calm - N/A   Partly Cloudy
12:45 AM 71.6 °F - 64.4 °F 78% 29.98 in 6.2 mi Calm Calm - N/A   Partly Cloudy
1:15 AM 69.8 °F - 64.4 °F 83% 29.98 in - NW 2.3 mph - N/A   Clear
1:45 AM 68.0 °F - 64.4 °F 88% 29.98 in - NNE 3.5 mph - N/A   Clear
2:00 AM 68 °F - 65 °F 86% 29.99 in 7 mi NNE 3.5 mph - -  
2:15 AM 68.0 °F - 64.4 °F 88% 29.98 in - NE 1.2 mph - N/A   Clear
2:45 AM 68.0 °F - 64.4 °F 88% 29.98 in - NNE 3.5 mph - N/A   Clear
3:15 AM 68.0 °F - 64.4 °F 88% 29.98 in - ENE 2.3 mph - N/A   Clear
3:45 AM 68.0 °F - 64.4 °F 88% 29.98 in - Calm Calm - N/A   Clear
4:15 AM 68.0 °F - 64.4 °F 88% 29.98 in - NE 1.2 mph - N/A   Clear
4:45 AM 66.2 °F - 62.6 °F 88% 29.98 in - Calm Calm - N/A   Clear
5:00 AM 67 °F - 63 °F 83% 29.99 in 12 mi Calm Calm - -  
5:15 AM 66.2 °F - 62.6 °F 88% 29.98 in - NNE 3.5 mph - N/A   Clear
5:45 AM 66.2 °F - 62.6 °F 88% 29.98 in - North 3.5 mph - N/A   Clear
6:15 AM 66.2 °F - 62.6 °F 88% 29.98 in - North 4.6 mph - N/A   Clear
6:45 AM 64.4 °F - 62.6 °F 94% 29.98 in - North 4.6 mph - N/A   Clear
7:15 AM 68.0 °F - 60.8 °F 78% 29.98 in - NE 2.3 mph - N/A   Clear
7:45 AM 68.0 °F - 60.8 °F 78% 29.98 in - North 3.5 mph - N/A   Clear
8:00 AM 69 °F - 61 °F 69% 29.99 in 12 mi North 3.5 mph - -  
8:15 AM 69.8 °F - 60.8 °F 73% 30.01 in - NNE 3.5 mph - N/A   Clear
8:45 AM 71.6 °F - 60.8 °F 69% 30.01 in - North 4.6 mph - N/A   Clear
9:15 AM 73.4 °F - 59.0 °F 61% 30.01 in - NNE 4.6 mph - N/A   Clear
9:45 AM 75.2 °F - 59.0 °F 57% 30.01 in - NNE 3.5 mph - N/A   Clear
10:15 AM 77.0 °F - 59.0 °F 54% 30.01 in - NNE 3.5 mph - N/A   Clear
10:45 AM 78.8 °F - 59.0 °F 51% 30.01 in - North 3.5 mph - N/A   Clear
11:00 AM 79 °F - 60 °F 41% 30.01 in 12 mi North 3.5 mph - -  
11:15 AM 80.6 °F 80.8 °F 57.2 °F 45% 30.01 in - NE 4.6 mph - N/A   Clear
11:45 AM 82.4 °F 81.7 °F 55.4 °F 39% 30.01 in 6.2 mi NNW 3.5 mph - N/A   Partly Cloudy
12:15 PM 82.4 °F 81.7 °F 55.4 °F 39% 30.01 in 6.2 mi ENE 3.5 mph - N/A   Partly Cloudy
12:45 PM 84.2 °F 83.0 °F 55.4 °F 37% 30.01 in 6.2 mi NW 2.3 mph - N/A   Partly Cloudy
1:15 PM 84.2 °F 82.8 °F 53.6 °F 35% 30.01 in 6.2 mi WSW 2.3 mph - N/A   Partly Cloudy
1:45 PM 86.0 °F 84.5 °F 55.4 °F 35% 29.98 in 6.2 mi East 4.6 mph - N/A   Partly Cloudy
2:00 PM 86 °F - 55 °F 24% 29.98 in 12 mi East 4.6 mph - -   Scattered Clouds
2:15 PM 86.0 °F 84.2 °F 53.6 °F 33% 29.98 in 6.2 mi South 3.5 mph - N/A   Scattered Clouds
2:45 PM 87.8 °F 85.7 °F 53.6 °F 31% 29.98 in 6.2 mi SSW 3.5 mph - N/A   Scattered Clouds
3:15 PM 87.8 °F 85.7 °F 53.6 °F 31% 29.98 in 6.2 mi SSW 3.5 mph - N/A   Scattered Clouds
3:45 PM 87.8 °F 87.1 °F 59.0 °F 38% 29.98 in 6.2 mi SW 11.5 mph - N/A   Partly Cloudy
4:15 PM 86.0 °F 86.1 °F 60.8 °F 43% 29.98 in 6.2 mi SW 11.5 mph - N/A   Partly Cloudy
4:45 PM 86.0 °F 86.1 °F 60.8 °F 43% 29.98 in 6.2 mi West 10.4 mph - N/A   Partly Cloudy
5:00 PM 86 °F - 60 °F 31% 29.96 in 12 mi West 10.4 mph - -   Partly Cloudy
5:15 PM 84.2 °F 83.8 °F 59.0 °F 42% 29.98 in 6.2 mi SW 10.4 mph - N/A   Partly Cloudy
5:45 PM 84.2 °F 83.5 °F 57.2 °F 40% 29.98 in 6.2 mi West 9.2 mph - N/A Thunderstorm Thunderstorm
6:15 PM 80.6 °F 80.8 °F 57.2 °F 45% 29.98 in 6.2 mi North 5.8 mph - N/A Thunderstorm Thunderstorm
6:45 PM 77.0 °F - 62.6 °F 61% 29.98 in 6.2 mi ENE 8.1 mph - N/A Thunderstorm Thunderstorm
7:15 PM 77.0 °F - 64.4 °F 65% 29.98 in 6.2 mi East 1.2 mph - N/A Thunderstorm Thunderstorm
7:45 PM 77.0 °F - 64.4 °F 65% 29.98 in 6.2 mi NNE 3.5 mph - N/A   Scattered Clouds
8:00 PM 78 °F - 64 °F 53% 29.99 in 9 mi NNE 3.5 mph - - Thunderstorm Light Thunderstorm
8:15 PM 77.0 °F - 64.4 °F 65% 29.98 in 6.2 mi North 3.5 mph - N/A Thunderstorm Thunderstorm
8:45 PM 75.2 °F - 68.0 °F 78% 29.98 in 6.2 mi NE 4.6 mph - N/A   Scattered Clouds
9:15 PM 75.2 °F - 68.0 °F 78% 30.01 in 6.2 mi NE 1.2 mph - N/A   Scattered Clouds
9:45 PM 73.4 °F - 68.0 °F 83% 30.01 in 6.2 mi NE 1.2 mph - N/A   Scattered Clouds
10:15 PM 73.4 °F - 68.0 °F 83% 30.01 in 6.2 mi NNE 2.3 mph - N/A   Partly Cloudy
10:45 PM 73.4 °F - 68.0 °F 83% 30.01 in - NE 2.3 mph - N/A   Clear
11:00 PM 73 °F - 67 °F 78% 30.01 in 6 mi NE 2.3 mph - -  
11:15 PM 71.6 °F - 68.0 °F 88% 30.01 in - ENE 2.3 mph - N/A   Clear
11:45 PM 71.6 °F - 66.2 °F 83% 30.04 in - NNE 1.2 mph - N/A   Clear